Voltar ao catálogo

STARLINK-35420

AtivoComunicaçõesVLEO
NORAD 66260·PAYLOAD·🇺🇸 United States

Lançado Oct 29, 2025 de Cape Canaveral Space Force Station

Loading…

Próximas Passagens (próximas 24 horas)

TLE

AtualizadoSource: CelesTrak SupGP

Época: Sep 14, 2026, 20:46 UTC

1 66260C 25245AC  26257.86576389 -.00049376  00000+0 -15877-2 0  2579
2 66260  53.1582 123.7550 0001368  83.9036 159.2145 15.31728773    18

Acompanhe STARLINK-35420 em tempo real com AllMySat

Download on the App Store